Regional Weather Roundup
Issued by NWS

Home | Current Version | Previous Version | Graphics & Text | Print | Product List | Glossary On
Versions: 1 2 3 4 5 6 7 8 9 10 11 12 13 14 15 16 17 18 19 20 21 22 23 24 25 26 27 28 29 30 31 32 33 34 35 36 37 38 39 40 41 42 43 44 45 46 47 48 49 50
000
ASUS43 KLMK 010210
RWRKY
KENTUCKY REGIONAL WEATHER ROUNDUP
NATIONAL WEATHER SERVICE LOUISVILLE KY
900 PM EST SAT JAN 31 2015

NOTE "FAIR" INDICATES FEW OR NO CLOUDS BELOW 12,000 FEET
WITH NO SIGNIFICANT WEATHER AND/OR OBSTRUCTIONS TO VISIBILITY.

KYZ001>023-026-027-061>063-070>075-010300-
WESTERN AND SOUTH CENTRAL KENTUCKY

CITY           SKY/WX    TMP DP  RH WIND       PRES   REMARKS
PADUCAH        CLOUDY    41  25  53 SE6       30.19F
HENDERSON      CLOUDY    39  25  56 E6        30.22F WCI  35
OWENSBORO      CLOUDY    38  27  65 SE5       30.25F WCI  34
HOPKINSVILLE   CLOUDY    43  22  43 SE6       30.22F
BOWLING GREEN  CLOUDY    39  26  59 E5        30.26F
GLASGOW        CLOUDY    38  26  62 CALM      30.26F
$$

KYZ024-025-028>034-038-045-046-053-010300-
NORTH CENTRAL KENTUCKY

CITY           SKY/WX    TMP DP  RH WIND       PRES   REMARKS
LOUISVILLE/SDF CLOUDY    40  22  48 S5        30.27S
LOUISVILLE/LOU CLOUDY    40  21  46 E3        30.26F
FORT KNOX      CLOUDY    37  24  59 SW3       30.26R
$$

KYZ035>037-039>044-047>052-055>060-089>105-010300-
NORTHEAST KENTUCKY

CITY           SKY/WX    TMP DP  RH WIND       PRES   REMARKS
LEXINGTON      CLOUDY    36  20  52 E3        30.27F
COVINGTON      LGT RAIN  36  25  64 SW5       30.26S WCI  32
FRANKFORT      CLOUDY    35  22  58 CALM      30.26F
$$

KYZ054-064>069-076>088-106>120-010300-
SOUTHEAST KENTUCKY

CITY           SKY/WX    TMP DP  RH WIND       PRES   REMARKS
JACKSON        CLOUDY    37  13  37 CALM      30.26F
LONDON         CLOUDY    37  16  42 E3        30.25F
SOMERSET       CLOUDY    36  19  51 CALM      30.27F
MIDDLESBORO    CLOUDY    36  25  64 CALM      30.28F
MONTICELLO     CLOUDY    37  26  65 CALM      30.28F
$$




USA.gov is the U.S. government's official web portal to all federal, state and local government web resources and services.